Tracking 30995 objects as of 7-Jul-2025
HD Live streaming from Space Station
objects crossing your sky now

ONEWEB-0628

Track ONEWEB-0628 now!
10-day predictions
ONEWEB-0628 is classified as:


NORAD ID: 55169
Int'l Code: 2023-004AF
Perigee: 1,220.1 km
Apogee: 1,221.7 km
Inclination: 87.9 °
Period: 109.7 minutes
Semi major axis: 7591 km
RCS: Unknown
Launch date: January 10, 2023
Source: United Kingdom (UK)
Launch site: AIR FORCE WESTERN TEST RANGE (AFWTR)
Your satellite tracking list
SHIYUAN 4
Track 1 satellite(s)




NASA's NSSDC Master Catalog

Two Line Element Set (TLE):
1 55169U 23004AF  25187.59225244 -.00000431  00000-0 -12340-2 0  9993
2 55169  87.8869  59.3693 0001066  79.0823 281.0425 13.12442726122707
Source of the keplerian elements: AFSPC